Wind_Speed
20 19 18 17 16 15 14 14 14 13 11 9 7 5 4 4 5 6 7 8 9 10 10 10 9 7 4 3 2 3 3 2 2 2 2 2 3 4 3 2 1 1 2 3 4 5 7 8 9 9 10 10 11 11 12 12 13 13 13 13 14 14 15 15 16 17 18 19 19 20 21 22 23 24 25 25 26 26 27 28 30 33 36 37 36 37 38 39
22 20 19 18 18 17 16 15 15 14 13 12 9 8 6 5 6 7 8 9 10 10 10 10 10 8 5 4 4 3 3 2 2 2 2 2 3 3 2 1 1 2 3 4 5 6 7 8 8 9 9 9 10 10 10 11 12 12 13 13 14 15 15 16 17 19 20 20 21 22 23 23 24 24 25 26 26 27 29 30 32 35 37 38 37 38 39 40
24 23 21 20 19 18 17 17 16 16 15 14 12 10 8 7 7 8 8 10 11 11 10 11 10 9 6 5 4 4 3 3 3 3 3 3 3 4 3 3 3 4 4 5 6 7 8 8 9 9 9 10 10 10 10 11 12 12 13 14 14 15 16 17 18 19 21 21 22 22 23 24 25 25 27 28 29 30 30 32 34 35 38 39 38 39 40 41
26 25 24 22 21 20 19 18 17 17 17 16 14 12 10 8 8 9 9 10 12 13 11 11 11 10 8 6 5 5 4 4 4 4 3 3 4 5 5 5 5 5 6 6 7 8 8 9 10 10 10 11 11 12 11 12 12 13 14 14 15 16 17 18 19 20 21 22 22 23 24 25 26 28 29 30 31 32 31 33 35 36 38 39 39 40 41 42
27 26 26 25 23 22 20 20 18 17 18 18 16 15 12 10 10 10 10 11 12 14 12 12 12 11 9 7 6 5 5 5 5 5 4 5 6 7 6 6 6 7 8 8 8 9 9 10 11 11 11 12 13 13 13 14 14 15 15 16 17 18 19 19 20 22 23 23 24 24 26 27 28 30 31 32 33 33 33 34 35 37 38 40 40 42 42 43
27 28 27 26 26 24 22 20 20 18 18 19 18 17 14 11 11 11 11 11 12 14 13 12 11 10 9 8 7 6 6 5 6 5 5 6 7 7 7 7 8 9 9 9 9 10 10 11 12 12 13 14 14 15 15 16 16 17 17 18 19 20 20 21 22 24 24 25 25 26 27 29 31 32 33 34 34 34 34 35 36 38 39 41 42 42 43 43
28 28 28 27 27 26 24 22 21 20 19 19 18 18 16 13 12 12 12 12 13 14 14 12 11 10 9 9 8 7 6 6 6 6 6 7 7 8 8 8 9 10 10 10 11 11 12 13 13 14 15 15 16 17 17 17 18 19 19 20 21 22 22 23 24 25 26 27 27 28 29 30 33 34 35 34 34 34 34 35 38 39 41 42 43 42 43 43
27 28 28 28 28 27 26 24 23 22 19 17 17 18 17 14 13 14 13 13 13 14 14 13 12 11 10 9 9 8 7 7 7 7 7 8 8 8 8 9 10 11 11 11 12 12 13 14 14 15 16 17 18 18 18 19 19 20 21 21 22 23 24 24 25 26 27 28 29 30 30 32 34 35 35 34 34 33 34 36 39 41 42 43 43 42 43 44
25 26 27 28 28 27 27 25 24 22 19 16 16 17 16 14 14 15 14 14 14 15 16 14 13 11 10 10 9 9 8 7 7 8 8 8 9 9 9 10 11 11 12 12 13 13 14 15 16 17 18 19 19 19 19 20 20 21 22 23 23 24 25 25 26 27 28 29 30 30 31 32 34 36 35 34 34 34 35 38 40 42 43 43 42 43 43 43
22 24 25 26 27 27 26 26 25 23 19 16 15 16 15 14 15 16 15 15 15 16 17 15 14 12 11 10 10 9 9 8 7 7 8 9 10 10 10 11 12 12 13 13 14 14 15 16 17 18 19 19 20 20 21 21 22 22 23 23 24 25 26 26 27 27 28 30 30 30 30 31 34 36 36 35 35 36 37 40 41 43 44 42 42 43 43 42
19 21 23 25 25 25 26 26 25 23 19 16 15 15 15 15 16 16 16 16 16 16 17 16 14 13 12 11 11 10 9 8 7 8 8 9 10 10 11 12 13 13 13 14 14 15 16 17 18 19 19 20 20 20 21 22 22 23 23 24 25 26 27 28 28 29 30 31 31 31 30 31 34 37 38 37 36 37 39 41 43 44 43 42 43 42 42 42
17 18 20 22 23 24 25 25 24 23 19 16 16 16 16 16 17 17 17 17 16 16 17 17 16 14 13 12 11 10 9 8 8 9 9 9 10 11 12 13 13 14 14 15 15 15 16 17 18 18 19 19 20 20 20 22 23 23 24 25 26 27 28 30 30 31 32 32 32 32 31 31 33 36 39 39 38 39 41 43 44 44 43 42 42 42 41 42
16 16 17 19 21 23 25 25 24 22 19 17 16 16 16 17 17 17 17 17 16 17 18 18 16 15 13 12 11 10 9 8 9 10 10 9 10 11 12 13 14 15 15 15 15 15 16 17 17 18 18 19 20 21 21 22 23 24 25 27 28 29 30 32 32 32 33 34 34 34 33 32 34 36 40 41 40 41 43 44 45 44 43 42 42 41 41 42
16 15 15 17 20 22 23 23 22 20 18 16 15 16 17 18 18 18 18 17 17 17 17 18 17 15 13 12 11 11 10 9 10 10 10 9 10 12 13 14 14 14 14 14 14 15 15 16 16 17 18 19 20 22 23 24 25 26 27 28 30 32 32 33 34 35 35 35 35 36 35 34 36 39 41 42 43 44 44 45 45 44 43 42 41 41 42 42
15 15 15 16 18 19 20 21 20 19 18 16 16 18 19 18 18 18 18 18 17 17 17 18 17 14 12 12 12 11 10 10 10 10 10 10 11 12 13 13 13 13 14 14 14 14 14 15 16 17 19 20 21 23 24 25 26 28 29 30 31 33 35 34 35 36 36 36 35 37 36 35 37 41 44 44 44 45 45 45 45 43 43 42 42 42 42 43
15 15 15 16 16 18 19 20 19 19 18 16 16 19 20 18 18 18 18 18 18 17 17 17 16 14 12 12 12 12 11 10 11 11 10 11 12 12 13 13 12 12 13 13 13 14 15 15 17 18 19 21 22 24 25 27 28 28 30 32 33 34 36 37 36 36 37 37 37 37 38 37 38 43 46 46 45 45 45 44 44 43 42 42 42 43 43 43
13 15 16 16 16 17 19 19 19 19 18 16 18 20 19 18 18 19 19 19 18 18 17 16 14 14 13 13 13 12 11 11 11 11 11 12 12 13 13 12 12 12 12 13 14 15 16 17 18 19 20 22 24 25 27 29 30 31 32 33 35 35 37 38 38 37 38 38 38 39 40 39 39 44 47 47 45 44 44 43 43 43 42 43 43 43 43 43
9 12 14 15 16 17 19 20 20 19 17 17 19 20 19 18 19 20 20 19 18 17 16 15 14 14 14 13 13 12 11 11 11 12 12 12 13 13 13 12 12 12 13 13 14 16 17 19 20 21 22 23 25 27 29 30 32 34 35 36 37 37 38 39 39 39 39 39 40 41 43 42 41 44 46 46 46 44 43 43 43 43 43 44 44 44 44 43
7 9 12 13 15 16 18 19 19 18 17 17 19 19 19 19 20 21 20 19 18 17 16 15 15 14 14 14 13 12 11 11 11 12 12 12 13 13 13 13 13 14 14 15 16 18 19 20 22 23 24 25 27 29 30 32 33 35 37 38 39 39 40 41 41 41 41 42 42 43 45 45 44 45 45 45 45 43 43 43 43 44 44 44 45 44 44 43
8 10 11 12 14 16 18 19 18 18 17 18 20 20 19 20 20 21 21 19 18 17 16 15 15 14 14 14 14 13 12 12 12 12 13 13 14 14 14 15 15 16 17 18 19 20 22 23 24 26 27 28 29 31 32 34 35 37 38 39 41 41 41 42 42 42 43 44 45 47 48 46 45 46 45 45 44 42 43 43 43 44 45 45 45 44 43 42
9 10 10 10 11 13 15 17 18 18 18 19 20 20 20 20 21 22 21 20 18 17 16 16 15 15 14 14 14 13 13 13 13 14 14 14 15 15 16 17 18 18 19 21 22 23 24 26 27 28 29 30 31 33 34 36 37 38 40 41 42 42 42 43 42 43 44 46 47 49 50 48 46 45 45 44 43 42 43 43 44 45 45 45 44 43 42 41
9 9 10 10 11 11 12 14 16 17 18 20 20 20 20 21 21 22 21 20 19 18 17 16 16 15 14 14 14 14 14 14 15 15 16 16 16 17 18 19 20 21 22 24 25 26 27 28 29 30 31 32 33 35 37 38 39 40 42 43 44 44 44 44 44 44 46 48 50 52 52 50 48 45 43 42 42 43 43 44 45 45 45 44 43 42 42 41
10 11 11 12 12 13 13 14 16 18 19 21 21 21 21 21 21 21 22 21 19 19 18 17 16 15 15 15 15 16 16 16 17 17 17 18 19 20 20 21 22 23 25 26 27 28 29 30 31 32 33 34 35 37 39 40 41 42 43 44 45 45 45 46 46 47 49 51 52 53 52 51 49 45 42 43 43 43 44 45 46 45 45 44 43 43 43 42
11 13 14 15 16 16 16 17 18 19 20 21 24 25 23 22 22 21 21 21 20 19 18 17 17 16 16 16 16 17 17 18 19 19 19 20 21 22 23 24 24 25 26 28 29 30 30 32 33 34 34 36 37 39 40 42 43 43 43 44 45 46 46 47 49 50 52 53 53 52 52 52 51 46 43 44 45 44 46 46 45 44 44 44 44 44 44 44
8 11 13 15 17 18 19 19 20 21 20 20 22 26 26 23 21 21 21 20 20 20 19 19 18 17 17 17 18 18 18 19 20 20 21 23 24 24 25 26 27 27 28 29 31 31 31 33 35 36 36 38 39 40 42 43 45 45 44 44 46 46 47 49 51 53 54 54 53 52 52 52 51 47 44 45 45 45 47 46 45 44 44 44 45 46 46 46
4 6 9 12 14 17 19 19 20 21 20 19 19 22 25 25 23 21 21 19 19 19 20 20 19 19 19 19 19 19 20 21 21 22 23 25 26 27 27 28 29 29 30 31 32 33 33 35 36 37 38 40 41 42 43 44 46 46 45 46 46 47 49 51 53 54 54 54 53 51 50 50 48 44 44 45 45 46 47 46 45 45 45 46 47 47 47 45
4 6 7 10 12 15 17 19 20 20 19 17 17 17 20 23 24 23 21 19 20 20 20 20 21 21 21 20 21 21 22 23 23 24 26 27 28 28 29 29 30 31 32 33 35 34 35 37 38 39 40 41 42 43 44 45 46 46 46 47 48 49 52 53 54 54 54 54 52 50 48 48 46 44 44 46 47 47 47 46 46 46 46 48 48 48 46 42
7 8 9 11 13 15 17 18 19 19 18 17 16 15 16 18 21 23 22 20 20 20 20 21 21 22 22 22 22 22 23 25 25 25 27 27 28 29 29 31 32 33 34 36 37 37 37 39 40 40 42 42 43 44 45 45 46 47 47 48 50 52 53 54 54 54 54 53 53 50 47 47 45 43 46 49 48 48 47 47 47 47 48 49 49 48 45 41
10 11 11 13 15 16 18 19 19 19 18 17 16 15 15 16 17 19 21 21 20 20 21 22 22 23 22 22 22 23 25 26 27 26 27 28 29 30 31 32 34 35 36 38 39 39 40 41 41 42 43 44 44 45 45 46 47 48 49 50 51 52 53 53 53 53 53 52 52 50 47 47 45 42 46 50 49 49 48 47 48 48 49 50 49 48 45 41
13 14 14 16 17 18 19 19 19 19 19 18 17 16 16 16 16 16 18 19 20 21 22 22 23 23 23 22 23 24 26 27 28 28 29 30 31 32 33 34 35 37 38 39 40 40 41 42 42 43 44 44 45 45 46 47 48 49 50 51 51 52 52 53 53 53 53 53 53 51 48 47 45 40 43 48 49 49 47 47 49 49 49 50 50 48 45 43
16 17 18 18 17 18 18 18 18 18 18 18 19 19 19 17 17 16 17 19 20 21 22 22 22 23 23 23 24 26 27 28 29 30 31 32 33 34 36 37 38 39 40 41 40 41 42 42 43 43 44 45 45 46 46 47 48 49 50 50 51 52 53 54 54 55 55 54 54 52 48 46 43 39 41 46 48 46 45 47 48 48 48 49 48 46 45 46
19 19 19 18 17 16 16 16 16 15 16 16 16 18 20 19 19 18 18 20 21 21 21 22 22 22 23 24 26 27 29 29 31 32 33 34 35 36 37 39 40 40 41 42 42 42 42 43 43 43 44 45 45 46 46 47 47 48 48 49 50 52 53 54 55 55 54 55 54 51 48 45 41 39 41 45 46 45 46 47 47 47 48 48 47 46 47 49
20 20 19 17 16 15 14 13 13 14 14 14 14 14 17 18 19 20 20 21 22 21 21 22 22 22 23 25 26 28 29 30 32 33 34 35 36 36 37 39 40 41 42 43 43 44 44 44 44 44 44 45 45 46 47 47 47 47 47 49 50 51 53 55 54 53 53 54 55 51 47 43 40 40 43 45 46 45 46 47 48 49 49 49 49 49 50 52
20 20 19 17 16 15 14 12 12 12 12 11 10 10 12 13 15 18 20 21 23 22 22 22 22 23 24 26 27 28 30 31 32 33 34 35 36 36 37 38 39 40 41 43 43 44 44 45 45 45 45 45 46 46 47 47 48 48 48 49 50 50 51 53 54 53 52 53 54 50 45 41 39 41 43 45 46 45 46 47 48 49 50 51 52 52 53 54
20 19 17 15 15 14 13 12 11 9 8 7 8 9 9 11 12 14 16 18 20 20 21 22 22 23 24 26 27 29 30 31 31 32 33 34 36 36 37 38 39 40 41 42 43 43 44 45 45 45 45 45 46 46 47 47 48 49 49 49 49 49 50 51 52 52 51 52 53 50 43 37 36 41 42 43 45 45 47 48 48 49 51 53 54 54 55 57
18 17 15 13 13 13 12 11 10 8 7 7 8 9 10 11 12 13 14 16 17 18 19 20 22 23 24 25 26 28 29 30 31 32 32 33 34 36 37 38 39 39 40 41 42 43 44 45 45 46 45 45 46 46 46 47 48 49 49 49 48 49 49 49 50 50 50 51 51 49 45 37 35 41 44 44 44 45 47 47 46 48 50 52 54 55 57 59
15 14 12 11 12 11 10 10 10 9 7 7 7 8 10 11 12 13 14 15 16 17 19 20 21 22 24 25 26 27 29 30 30 32 32 32 34 35 36 38 38 39 40 41 42 43 45 45 45 45 44 44 45 46 46 46 46 47 47 47 47 48 48 48 48 48 49 50 50 50 49 41 36 41 45 46 46 47 47 46 46 47 48 51 53 55 57 58
12 11 10 11 11 11 10 11 12 11 9 7 8 10 11 13 14 15 16 16 17 18 19 21 22 22 24 25 26 27 28 30 30 31 32 33 34 35 36 37 38 39 40 42 43 44 45 46 45 44 44 44 45 45 45 45 45 45 45 45 45 46 46 47 48 46 48 50 50 50 52 48 42 42 45 47 48 49 48 48 48 49 50 52 54 55 57 58
10 9 9 10 10 10 11 11 13 13 11 9 11 13 14 15 15 16 17 17 18 19 20 22 23 23 24 25 26 26 27 29 30 31 32 34 35 36 37 38 39 40 41 42 43 44 45 46 46 44 44 45 45 44 45 45 43 42 42 42 42 43 43 45 46 46 48 51 52 52 54 52 49 48 48 50 51 51 51 52 53 54 54 56 57 58 58 59
9 8 9 10 11 12 12 11 12 14 14 13 13 15 16 17 17 17 18 18 19 20 21 22 23 23 24 25 26 27 27 28 30 31 33 34 35 36 37 38 39 40 41 42 43 44 45 46 46 44 43 43 43 41 41 42 41 40 40 40 41 41 42 45 46 45 46 49 51 53 55 53 51 50 50 52 54 55 55 55 55 56 57 57 58 59 59 60
8 8 8 6 7 9 11 10 11 12 13 14 14 16 17 17 17 18 18 19 20 21 22 22 23 24 25 25 26 28 28 29 30 32 33 34 36 37 38 39 40 41 41 42 43 44 44 45 44 42 41 40 38 37 37 37 38 39 40 41 41 42 44 46 49 49 49 49 49 52 55 54 50 49 50 52 55 56 55 55 56 57 57 57 57 58 60 61
6 5 3 1 2 3 6 7 8 9 11 13 15 16 17 17 18 18 19 20 21 21 22 23 24 25 26 27 28 29 30 30 31 32 34 35 36 37 38 39 40 41 41 42 42 42 42 42 40 38 36 35 34 35 36 36 38 39 41 42 43 44 45 47 50 51 53 53 51 53 56 55 52 52 52 54 57 57 56 56 57 57 57 57 58 59 60 62
5 2 2 3 4 5 6 7 8 9 11 13 15 16 17 18 18 19 20 21 21 22 22 23 24 25 26 27 29 30 31 31 32 33 34 35 36 37 38 39 40 40 41 40 40 39 39 38 37 36 35 34 34 36 37 37 38 40 41 42 43 44 45 46 48 50 53 54 53 54 56 55 56 56 55 57 59 58 57 57 57 57 57 58 59 60 61 62
3 1 3 5 6 6 7 7 9 11 12 14 15 16 17 18 19 20 20 21 21 22 23 24 25 26 27 28 29 30 31 32 32 33 35 36 36 37 38 38 39 39 38 38 37 36 37 37 37 38 38 38 39 40 40 40 41 42 43 44 45 45 46 47 48 50 53 53 53 53 54 53 55 56 55 57 59 57 57 57 58 58 58 58 60 61 63 65
4 2 4 5 6 7 7 8 10 11 12 14 15 16 17 18 19 20 20 21 22 23 24 24 25 26 27 28 29 30 32 33 33 34 35 36 36 37 37 37 37 36 36 36 36 36 36 37 38 40 41 41 42 44 44 44 45 46 46 46 46 47 47 47 48 50 53 54 54 54 55 54 54 55 56 58 57 57 57 57 57 57 58 59 62 64 66 68
5 5 5 6 7 7 8 9 10 11 13 15 16 17 18 18 19 20 21 22 22 23 24 25 25 26 27 28 29 30 31 32 33 34 34 35 35 35 35 35 35 36 36 37 37 38 37 37 38 40 41 42 43 45 46 47 47 48 48 48 48 48 47 47 48 49 52 55 55 56 58 58 56 56 59 59 58 59 59 58 57 58 59 62 65 67 69 71
5 6 6 7 7 8 8 10 11 12 14 15 16 17 18 18 19 20 21 22 22 23 24 25 26 27 27 28 28 29 29 30 32 33 33 34 35 35 35 36 36 37 38 38 39 40 40 39 40 41 41 42 44 46 48 49 49 49 49 49 49 49 49 48 49 51 53 56 57 56 58 58 57 57 59 59 59 59 59 59 59 60 62 65 68 70 71 74
6 7 7 8 8 9 10 11 12 13 14 15 16 17 18 18 19 20 20 21 22 23 24 25 26 26 27 27 28 28 29 30 31 32 33 33 34 35 36 37 37 38 39 40 40 42 43 42 42 42 42 43 45 47 48 49 50 50 50 50 51 51 52 51 51 53 56 58 57 56 56 57 57 57 58 58 59 59 59 60 61 62 65 69 71 72 74 77
6 7 8 8 9 10 11 12 13 13 14 15 16 17 18 18 19 20 20 21 23 24 24 25 25 25 26 27 28 29 30 30 31 31 33 34 35 36 37 38 39 40 41 42 43 44 46 44 44 44 43 42 44 46 48 49 50 51 51 51 53 54 54 54 54 55 57 57 56 55 55 55 56 57 57 57 58 59 60 61 63 65 68 71 73 76 78 80
7 8 8 9 10 11 12 13 13 14 14 15 16 17 18 19 19 21 22 22 23 24 25 25 25 25 26 27 28 29 31 32 33 33 35 36 37 38 40 40 42 43 43 44 45 46 46 45 45 46 45 44 44 46 49 49 51 52 53 52 53 54 54 54 54 54 55 54 53 54 54 54 55 56 56 57 59 60 61 63 66 69 72 75 77 79 80 77
8 9 9 10 11 12 13 13 13 14 15 15 17 18 19 20 21 22 23 23 24 24 25 25 25 25 26 27 29 31 33 34 35 36 38 39 40 42 43 44 45 45 44 45 45 45 46 46 47 48 48 47 46 48 51 52 52 53 52 52 52 53 54 54 53 53 54 54 53 53 54 54 55 55 56 58 61 63 66 68 70 73 76 78 80 80 77 69
9 9 10 11 11 12 13 13 14 15 16 17 19 20 21 21 22 23 24 24 24 25 25 25 25 26 27 29 31 33 34 35 37 39 41 42 43 44 45 45 45 45 45 45 45 46 47 48 49 50 51 50 49 50 52 53 54 53 52 52 52 53 54 53 52 51 52 52 52 52 53 55 56 57 58 60 63 67 70 73 75 78 80 81 81 76 67 59
Wind_Direction
218 219 219 220 223 227 230 232 233 230 225 226 233 237 238 219 197 186 178 177 175 176 180 183 184 181 178 184 190 179 159 143 139 152 158 159 184 187 164 142 145 299 311 316 316 316 317 318 317 314 315 316 313 307 301 299 297 294 291 290 289 288 288 289 290 290 289 288 288 289 289 289 290 290 290 290 291 293 295 298 300 298 297 299 301 301 301 301
220 221 221 221 222 227 231 234 236 235 229 224 229 235 236 228 208 197 189 186 184 182 185 189 192 192 192 203 208 200 188 185 195 213 215 210 220 214 194 190 247 287 299 304 307 311 315 318 318 319 321 320 315 310 303 301 298 296 295 294 295 294 294 295 296 295 292 292 293 292 293 292 292 292 291 292 294 295 297 300 299 298 299 300 301 301 301 302
222 222 223 223 223 225 229 233 235 236 232 225 226 232 237 234 218 204 197 194 192 188 188 194 198 201 204 213 221 221 218 222 232 235 236 242 248 242 234 240 261 275 286 294 301 305 312 318 321 322 324 322 320 317 311 307 304 303 303 302 303 301 301 301 300 298 297 297 296 296 296 295 294 294 293 294 296 297 300 300 299 299 300 300 301 302 302 303
223 224 224 224 225 225 227 231 235 235 233 227 225 231 238 238 225 210 203 200 198 193 192 197 200 204 209 219 231 237 238 240 246 247 248 252 252 247 244 253 266 274 280 286 294 299 306 314 316 318 321 321 322 321 319 317 314 312 311 309 308 306 305 304 302 301 300 299 298 297 297 296 296 295 295 296 297 298 300 300 300 300 300 301 302 303 303 304
224 225 224 225 226 227 227 230 234 236 233 228 226 231 238 242 230 216 210 207 204 199 197 201 203 207 212 223 236 246 250 253 256 253 249 245 242 241 246 257 268 275 277 281 288 294 301 306 308 312 318 319 320 321 321 321 319 317 316 313 311 308 306 305 303 302 300 298 297 297 297 296 296 295 295 296 298 300 302 302 301 301 301 302 303 304 305 305
226 226 226 225 226 228 228 230 235 237 236 230 228 233 239 245 234 220 214 214 210 204 202 204 206 210 216 225 236 248 255 258 258 253 246 240 237 239 250 263 270 274 276 279 283 289 297 300 303 311 316 318 318 319 319 319 318 316 316 313 310 308 306 304 302 301 300 298 298 298 297 297 296 295 296 297 299 302 304 304 303 302 303 304 305 307 307 305
228 227 227 226 225 227 228 231 235 238 239 234 233 235 240 247 237 221 216 217 215 208 206 207 209 212 219 227 237 247 254 255 257 254 247 241 240 246 258 268 271 273 275 277 282 288 294 297 303 312 316 317 316 317 317 317 316 314 313 311 308 306 304 303 303 302 301 300 300 300 299 298 297 296 297 300 303 306 307 307 305 305 305 307 308 309 307 306
229 228 229 228 226 227 228 231 234 237 240 237 236 235 238 246 236 220 217 218 216 211 208 209 211 215 221 230 238 247 254 255 256 255 251 247 249 257 267 274 276 276 277 280 286 290 293 298 306 312 314 315 315 315 315 314 313 313 311 309 307 306 305 305 304 304 303 303 303 302 302 301 299 299 301 304 307 309 309 308 306 307 308 310 311 308 306 306
231 231 231 230 229 229 230 231 232 234 235 233 235 234 235 240 229 219 217 218 217 212 210 211 213 218 225 232 240 248 254 256 257 256 255 256 260 268 277 283 285 283 284 287 289 290 295 302 309 312 312 313 313 312 312 312 312 312 310 308 307 307 307 306 306 306 306 305 305 305 304 304 302 302 303 306 308 310 310 309 309 310 311 312 310 307 307 306
231 232 232 232 231 230 231 231 231 231 229 230 235 233 232 230 222 217 216 218 218 213 211 212 214 220 227 234 239 247 254 258 263 264 264 264 268 277 286 292 292 290 289 288 289 294 300 306 309 309 310 310 311 312 312 312 312 311 309 309 309 309 308 308 309 309 307 306 306 307 306 305 304 303 305 307 310 312 312 311 312 312 312 312 309 307 307 306
230 231 230 231 231 230 229 229 229 228 227 231 234 231 229 225 218 216 217 219 219 215 212 213 215 220 226 232 238 245 254 261 268 271 271 273 277 286 294 297 295 292 289 290 293 299 303 305 306 307 309 310 311 312 313 312 311 310 310 311 310 310 310 310 310 310 308 307 307 307 307 307 305 305 305 308 312 314 313 313 313 313 313 311 307 307 307 305
228 229 226 226 226 224 225 225 224 224 226 230 229 229 229 220 214 216 218 220 220 217 215 214 216 221 227 232 238 245 254 264 274 276 277 281 287 294 298 298 295 292 292 293 297 300 302 303 304 307 310 312 312 313 313 312 311 311 312 311 310 311 311 311 311 310 309 308 308 307 308 308 307 306 306 308 314 315 314 314 314 313 312 309 307 307 306 305
224 225 223 222 220 218 219 221 221 221 225 225 223 226 224 215 213 215 218 220 220 219 218 217 218 223 229 235 239 247 257 268 278 280 281 285 292 297 300 298 295 294 293 294 296 298 300 303 306 310 312 313 312 313 312 311 311 311 311 311 311 311 311 310 310 310 309 309 309 308 310 311 308 308 307 310 315 316 315 315 314 313 311 308 308 307 305 304
224 222 221 221 219 218 218 219 219 220 222 220 219 219 216 212 214 215 217 221 220 220 220 219 220 224 231 237 242 249 258 269 278 282 284 289 294 297 298 296 294 294 293 294 296 299 302 305 309 311 311 311 311 311 311 310 310 310 310 310 311 310 310 310 310 310 309 310 310 309 311 313 311 309 309 312 316 316 316 316 314 313 310 308 307 306 305 304
225 223 221 221 221 219 217 218 218 219 217 215 215 213 211 212 216 217 219 221 221 221 221 221 222 226 233 239 244 251 258 268 277 282 286 290 293 293 293 293 293 294 294 295 298 301 304 307 309 310 309 310 310 309 310 309 309 310 310 310 310 310 309 310 311 310 310 310 311 310 312 314 314 312 311 315 317 316 316 315 313 311 309 308 307 306 305 303
227 224 221 222 222 220 217 217 217 215 213 211 211 212 212 214 218 220 223 224 223 222 221 222 223 227 235 242 247 252 258 266 275 280 284 288 289 288 288 290 291 293 295 298 300 302 304 306 307 308 308 308 308 308 309 308 308 308 309 309 310 310 310 310 311 311 310 311 312 311 313 315 316 313 313 316 317 315 315 314 312 310 309 308 307 306 304 303
224 220 218 218 220 219 218 215 213 212 212 212 212 213 215 218 220 223 226 227 225 224 223 223 225 229 237 243 248 252 257 265 273 279 283 284 284 284 285 286 288 291 295 297 299 301 302 303 305 306 307 307 307 308 308 308 309 308 309 309 310 311 311 311 311 311 311 311 312 312 313 316 316 313 314 316 315 315 314 313 311 309 308 307 307 305 303 302
209 206 206 210 215 217 218 217 215 215 216 215 215 216 218 221 222 225 229 230 228 227 226 226 227 232 238 244 249 253 257 264 271 277 280 281 281 281 282 283 285 288 292 294 296 299 300 301 303 304 305 306 307 307 308 308 309 309 310 310 311 311 311 311 311 311 311 311 313 313 314 316 315 313 314 315 315 315 314 312 310 309 308 307 306 304 302 302
183 192 198 205 212 218 221 222 222 222 222 218 216 218 222 224 224 227 231 233 231 229 228 227 229 232 238 245 249 252 256 262 269 274 276 277 277 278 280 281 284 287 290 292 295 297 298 300 301 303 304 305 306 307 308 308 309 309 310 310 311 312 312 312 312 312 312 312 313 313 314 315 315 314 315 315 314 315 313 311 309 309 308 307 305 303 302 301
177 184 196 206 214 222 226 228 229 229 226 220 216 219 225 228 227 228 232 234 233 231 229 230 231 233 238 244 249 252 255 260 264 266 268 269 271 274 276 278 281 285 288 291 293 296 297 298 300 302 303 305 307 307 308 308 309 309 310 310 311 311 312 311 312 312 311 311 313 313 314 315 315 314 315 314 314 313 311 310 309 308 307 306 304 302 301 301
182 185 194 207 218 226 229 230 230 228 225 222 221 224 229 231 230 231 234 236 235 234 232 232 234 237 241 245 249 251 253 256 258 259 262 264 267 271 274 277 281 284 288 291 293 295 296 298 300 301 303 305 306 307 307 308 309 310 310 311 311 311 311 311 311 311 311 311 313 313 313 314 315 315 315 314 313 312 311 310 308 307 307 305 303 302 301 300
196 201 207 216 224 229 231 231 229 228 227 227 228 231 234 234 232 232 235 237 238 237 235 235 237 240 244 248 250 251 252 253 254 257 260 263 267 272 275 279 282 286 289 290 292 293 295 297 299 300 302 305 306 306 307 308 309 310 311 311 311 311 311 310 310 311 311 312 312 313 314 314 315 315 315 313 312 312 311 309 308 307 306 304 303 302 300 300
218 224 229 231 233 234 236 235 234 233 234 235 234 235 237 237 235 235 236 239 240 239 238 238 239 242 245 248 250 253 254 255 257 259 262 265 269 273 277 280 283 287 289 290 292 293 295 297 298 299 302 304 305 307 307 308 309 310 311 311 311 311 310 310 310 311 312 312 313 313 313 313 313 315 316 313 312 312 310 308 308 307 305 303 303 302 301 301
232 236 240 242 242 242 242 242 243 243 246 247 240 236 237 236 235 236 238 241 243 242 241 241 242 243 245 248 251 254 256 259 261 262 264 267 271 275 278 281 285 288 290 291 293 295 298 299 299 300 303 304 305 307 308 308 309 310 311 310 310 310 310 310 310 311 311 312 312 312 312 312 313 316 317 314 313 312 309 308 308 306 304 303 303 302 301 302
239 241 243 244 245 246 246 247 251 254 259 260 248 239 238 235 234 236 238 242 244 245 244 243 244 246 248 250 253 256 259 262 264 264 266 270 274 276 279 283 286 288 291 293 294 297 300 300 300 301 303 304 306 307 308 309 310 310 311 310 309 309 310 310 310 311 311 311 312 313 313 313 314 317 317 314 312 311 309 308 307 305 304 304 304 303 303 305
271 261 256 253 250 249 250 251 255 258 261 265 258 247 242 237 234 234 238 242 246 247 246 246 247 249 251 253 256 259 261 263 265 266 269 273 276 279 281 283 286 289 292 294 296 299 301 300 300 302 304 305 307 307 308 309 309 309 310 309 309 309 309 309 310 310 311 311 312 313 313 313 314 316 315 312 311 310 308 307 307 305 305 305 305 305 307 309
309 293 280 273 265 260 256 254 256 258 258 260 260 256 251 245 239 235 237 243 247 249 250 250 249 251 253 256 259 261 263 265 266 270 273 276 278 280 282 284 287 290 293 295 297 299 301 301 302 303 304 306 307 307 308 309 309 309 309 309 309 309 309 309 309 309 310 310 310 311 312 312 314 315 313 311 311 309 308 308 307 306 306 306 306 308 310 312
306 297 287 280 274 267 261 256 254 253 253 253 255 257 257 253 248 242 240 244 248 249 250 252 252 253 255 258 261 264 267 268 270 272 275 278 281 282 284 286 289 291 294 295 297 300 301 301 303 304 305 306 307 307 308 308 308 308 308 308 308 308 308 308 308 309 309 309 309 310 311 311 315 318 314 311 311 308 308 308 307 307 307 307 308 310 312 312
302 295 288 282 275 268 262 257 254 252 251 247 246 249 251 253 252 247 245 247 250 249 251 253 254 256 259 262 265 267 268 271 273 275 278 280 283 284 286 288 290 292 294 295 298 300 301 302 304 305 306 306 307 308 308 308 308 308 308 308 308 308 308 308 308 308 308 308 307 309 311 312 317 320 315 312 310 308 309 308 307 308 309 309 310 311 312 309
303 297 291 285 278 269 262 258 256 254 253 250 243 242 243 246 247 246 246 249 250 250 251 253 256 259 262 264 267 268 269 272 275 278 281 283 285 286 288 290 291 293 295 296 298 300 301 303 304 305 306 307 307 308 308 308 308 308 308 308 307 307 307 306 306 307 306 306 307 310 313 315 319 320 314 310 309 308 309 307 308 310 310 309 311 312 310 308
303 295 288 283 277 268 262 260 259 257 257 255 247 241 241 243 245 247 249 251 252 252 254 257 260 263 266 267 268 270 272 275 278 281 283 285 287 289 291 292 292 293 294 295 297 299 301 303 305 306 306 307 307 308 308 307 308 308 308 308 308 307 307 306 307 307 308 308 309 312 314 317 320 318 311 307 305 306 306 306 308 309 308 309 311 311 310 308
299 291 284 280 275 267 262 261 261 261 263 262 256 249 247 245 246 250 252 255 257 257 259 263 265 267 268 270 271 273 275 278 280 283 285 287 289 290 292 293 294 295 296 297 298 300 301 303 305 306 306 306 307 307 307 307 307 308 308 308 307 308 307 307 308 308 309 309 309 311 315 318 319 314 308 305 304 305 306 307 308 307 307 310 310 309 308 308
293 287 282 278 271 264 262 264 266 266 266 267 267 264 259 253 251 254 255 259 262 263 264 267 269 270 271 273 275 277 278 280 283 285 288 289 291 292 294 295 296 297 299 299 301 302 303 304 305 306 306 307 307 308 307 307 307 308 308 308 308 308 307 307 307 307 308 308 308 312 316 319 318 313 309 307 305 306 307 307 307 308 310 311 309 308 308 307
288 284 282 274 263 257 260 266 270 266 261 261 265 269 270 265 261 261 261 262 265 267 269 270 271 273 275 277 278 279 280 283 286 288 290 291 292 294 295 296 297 298 300 300 301 303 304 305 306 307 308 308 308 308 308 308 309 309 309 308 308 307 305 306 306 307 309 308 308 312 316 319 318 312 310 308 307 308 307 307 308 310 311 310 308 308 307 306
285 284 280 267 253 250 257 264 260 250 246 255 263 269 272 270 269 269 268 267 267 269 272 274 274 276 278 280 282 284 286 288 290 291 293 295 296 297 297 297 299 299 300 302 302 303 304 304 306 307 308 309 308 308 309 309 309 309 308 307 306 305 304 305 306 307 309 307 308 311 314 319 316 310 308 307 307 308 307 307 310 311 310 309 308 308 307 307
284 282 275 258 246 247 255 259 244 228 236 254 264 272 276 275 275 275 274 275 275 275 277 278 279 280 282 284 287 290 291 292 294 294 295 297 297 298 298 299 300 301 302 303 304 304 305 305 307 308 309 309 308 309 309 309 309 308 307 306 306 305 305 306 307 308 309 308 309 312 313 318 317 310 309 310 309 308 306 307 309 308 307 307 307 306 306 306
284 279 265 251 247 250 256 250 230 222 238 253 267 282 286 286 285 283 283 284 284 284 283 283 284 286 288 290 292 293 294 295 296 297 298 299 298 298 299 300 302 303 303 304 305 305 305 305 307 308 309 309 308 309 309 309 308 307 307 307 306 306 307 307 308 311 311 310 312 313 313 318 318 312 311 311 309 305 305 306 306 305 304 303 303 303 303 303
285 276 258 250 252 255 256 243 227 228 239 252 273 290 295 295 293 292 292 292 292 291 291 290 291 292 293 294 295 296 297 297 299 299 300 300 300 301 302 303 304 305 305 306 306 306 306 306 307 308 310 309 309 309 309 308 307 307 307 307 307 308 310 310 311 314 313 312 314 314 313 316 318 314 312 310 306 305 305 306 306 305 304 304 303 303 303 303
284 273 258 254 254 254 253 240 229 232 238 252 274 289 297 300 298 297 297 297 297 297 297 297 297 297 298 298 298 299 299 300 301 302 303 303 303 304 305 305 306 306 307 307 307 307 307 307 308 310 311 310 310 310 309 308 307 307 307 308 309 311 312 312 314 315 315 313 315 315 314 315 317 317 314 311 308 307 308 309 309 308 308 308 308 307 307 307
286 272 260 260 257 254 253 246 239 238 241 253 272 287 297 301 302 302 301 300 301 300 300 300 300 301 301 300 301 302 302 303 304 304 305 305 306 306 307 307 307 308 308 308 308 308 308 309 310 311 311 310 311 311 309 309 309 309 310 311 312 313 314 313 313 314 313 312 313 313 312 313 316 316 313 311 309 309 310 312 311 311 311 311 310 310 309 309
297 275 261 265 264 260 259 259 256 250 248 257 275 289 299 304 305 305 304 303 303 302 302 302 302 302 303 303 303 304 305 306 307 307 307 307 308 308 308 308 308 309 309 309 309 309 310 310 312 313 313 313 313 312 311 311 312 313 313 314 314 316 316 315 314 314 312 311 312 311 308 311 314 312 310 310 308 309 312 313 312 311 312 311 311 310 309 309
316 290 270 307 33 330 297 283 277 270 266 273 285 294 301 305 306 306 305 304 304 303 303 303 303 304 305 306 307 307 308 309 310 309 309 309 309 309 310 310 310 310 310 310 310 311 312 313 314 315 315 316 316 314 313 314 314 314 314 314 315 316 317 315 314 313 312 311 313 310 309 311 313 311 312 310 309 311 314 313 312 312 312 312 311 310 309 310
330 324 4 30 34 1 329 309 298 291 287 289 293 299 304 306 306 305 304 303 303 303 303 304 305 306 307 308 309 309 310 310 311 311 310 310 311 311 311 311 311 311 311 311 313 314 315 316 317 317 317 317 316 313 313 314 314 313 313 313 314 315 315 313 312 311 309 310 311 309 310 313 313 313 314 312 311 314 315 313 312 312 312 312 311 310 309 309
2 17 8 1 355 339 321 308 300 295 293 296 299 303 305 304 303 303 302 302 304 304 305 306 307 308 310 311 311 311 311 312 312 312 312 312 313 313 312 312 313 313 314 315 316 317 319 320 320 319 319 319 317 315 314 314 314 313 312 313 313 313 313 311 311 309 307 308 308 307 309 311 311 312 312 310 310 312 311 311 312 312 311 311 310 309 309 310
41 26 356 344 336 325 313 307 302 299 299 300 302 303 302 301 302 302 303 304 306 307 308 309 310 311 313 313 313 313 313 313 314 314 314 314 314 314 315 315 315 316 317 317 318 319 320 322 321 320 320 320 319 317 316 315 314 313 312 312 312 312 311 311 311 309 308 308 308 308 309 310 310 311 309 308 310 310 309 311 312 312 312 311 310 310 311 312
26 5 349 337 328 318 310 306 304 301 300 300 301 301 301 302 304 305 306 308 310 311 311 312 313 314 314 314 314 315 315 316 316 317 317 317 317 317 317 317 318 318 319 319 319 319 320 321 320 319 319 319 317 315 314 313 313 312 312 312 312 312 312 312 310 308 307 307 308 309 310 311 312 311 309 310 311 311 311 313 313 312 312 312 311 312 313 315
354 342 335 331 324 316 310 305 303 301 301 301 303 304 305 307 308 310 311 311 312 313 313 314 314 314 315 315 316 317 318 319 319 320 320 320 320 319 318 319 319 319 319 319 319 318 318 319 318 316 317 316 315 313 312 312 312 312 312 312 313 313 312 311 310 308 307 307 309 311 312 313 313 311 310 311 312 312 313 314 314 314 314 313 313 314 316 317
335 332 329 326 319 313 309 306 305 304 305 306 308 309 311 311 312 313 313 312 312 313 314 315 315 316 317 317 318 320 322 322 322 322 321 321 320 318 318 319 318 319 319 318 318 316 316 317 315 314 315 315 313 312 311 311 312 312 312 313 313 312 312 311 310 309 308 309 311 313 313 313 312 311 311 312 312 313 314 315 315 315 314 313 314 316 317 317
329 326 322 318 315 313 310 309 309 310 311 312 313 313 313 313 313 313 313 313 314 315 316 317 318 318 319 320 321 322 323 322 322 321 320 320 319 318 318 318 318 318 317 316 316 315 315 315 314 313 314 314 313 312 311 311 311 311 312 312 312 311 311 310 310 310 310 311 313 313 313 312 311 311 312 313 313 314 315 315 315 315 314 314 316 317 317 317
323 321 320 318 317 315 314 314 314 315 315 315 314 314 314 314 314 314 314 316 317 317 318 319 319 320 320 321 321 322 322 321 321 320 319 319 319 318 318 318 317 317 316 316 316 316 315 316 316 314 315 315 314 311 310 310 310 310 311 311 311 310 310 310 311 311 311 312 313 312 312 310 310 311 313 314 314 315 315 315 315 315 316 316 317 318 317 317
323 323 322 320 319 318 317 318 318 318 318 316 314 315 315 315 316 316 317 317 318 318 318 318 318 318 319 319 320 320 321 320 320 320 320 319 319 318 318 317 317 318 318 317 318 317 316 317 316 315 314 314 313 311 310 310 310 310 311 311 311 310 310 311 312 312 312 312 313 312 312 311 312 313 315 315 315 315 315 316 317 317 317 317 318 318 318 318
325 325 324 323 322 320 319 320 320 319 317 315 315 316 316 315 317 318 317 317 317 317 317 316 316 317 318 319 320 320 320 320 320 320 319 318 318 318 318 319 319 319 319 319 318 317 316 316 315 314 313 313 313 312 311 311 311 311 312 312 312 311 312 313 314 313 312 313 314 314 314 314 315 315 316 316 316 316 317 319 319 318 318 318 319 319 319 318
Height
5824 5825 5826 5827 5828 5828 5829 5829 5829 5830 5830 5831 5831 5831 5831 5831 5832 5832 5832 5832 5832 5833 5833 5833 5834 5834 5834 5834 5834 5834 5834 5834 5834 5835 5835 5835 5835 5835 5835 5835 5835 5835 5835 5835 5834 5834 5834 5833 5833 5832 5831 5831 5830 5829 5828 5827 5826 5825 5825 5824 5823 5822 5821 5820 5819 5818 5817 5816 5815 5813 5812 5811 5809 5808 5806 5805 5803 5802 5800 5799 5797 5794 5791 5790 5788 5786 5783 5781
5824 5825 5825 5826 5827 5828 5828 5829 5829 5829 5830 5831 5831 5831 5831 5832 5832 5832 5833 5833 5833 5833 5833 5834 5834 5834 5835 5835 5835 5835 5835 5835 5835 5835 5835 5835 5835 5835 5835 5835 5835 5835 5835 5834 5834 5834 5834 5833 5833 5832 5831 5830 5830 5829 5828 5826 5826 5825 5824 5823 5822 5821 5820 5819 5818 5816 5815 5814 5812 5811 5810 5808 5807 5805 5804 5802 5801 5799 5798 5796 5794 5791 5788 5787 5785 5782 5780 5778
5823 5824 5825 5826 5826 5827 5828 5828 5829 5829 5830 5830 5831 5831 5831 5831 5832 5832 5833 5833 5833 5833 5834 5834 5834 5835 5835 5835 5835 5835 5835 5835 5835 5835 5835 5835 5835 5835 5835 5835 5835 5835 5835 5834 5834 5834 5833 5833 5832 5831 5831 5830 5829 5828 5827 5826 5824 5823 5822 5821 5821 5820 5818 5817 5816 5815 5813 5812 5810 5809 5807 5806 5804 5803 5801 5799 5798 5796 5795 5793 5791 5788 5785 5783 5781 5779 5776 5774
5823 5823 5824 5825 5826 5826 5827 5828 5828 5829 5829 5830 5830 5831 5831 5831 5832 5832 5832 5833 5833 5833 5834 5834 5834 5834 5835 5835 5835 5836 5835 5835 5835 5835 5835 5835 5835 5835 5835 5835 5835 5835 5834 5834 5834 5834 5833 5832 5832 5831 5830 5829 5828 5827 5825 5824 5823 5822 5821 5820 5819 5818 5817 5815 5814 5813 5811 5810 5808 5807 5805 5803 5802 5800 5798 5797 5795 5793 5792 5790 5787 5784 5781 5779 5777 5775 5772 5769
5822 5822 5823 5824 5825 5826 5826 5827 5828 5828 5829 5829 5830 5830 5831 5831 5831 5832 5832 5833 5833 5834 5834 5834 5834 5834 5835 5835 5836 5836 5836 5836 5835 5835 5835 5835 5835 5835 5835 5835 5835 5834 5834 5834 5833 5833 5832 5831 5831 5830 5829 5828 5826 5825 5824 5823 5822 5821 5819 5818 5817 5816 5815 5814 5812 5811 5809 5808 5806 5805 5803 5801 5799 5797 5795 5794 5792 5790 5789 5786 5784 5781 5778 5775 5773 5770 5768 5765
5820 5821 5822 5823 5824 5825 5826 5827 5827 5828 5828 5828 5829 5830 5830 5831 5831 5831 5832 5832 5833 5833 5834 5834 5834 5834 5835 5835 5836 5836 5836 5836 5835 5835 5835 5835 5835 5835 5835 5835 5834 5834 5834 5833 5833 5832 5831 5830 5830 5829 5827 5826 5825 5824 5823 5821 5820 5819 5818 5817 5815 5814 5813 5812 5810 5809 5807 5805 5804 5802 5800 5799 5796 5794 5793 5791 5789 5787 5785 5782 5779 5777 5774 5771 5769 5766 5763 5760
5819 5820 5821 5822 5823 5824 5825 5826 5827 5827 5827 5828 5828 5829 5830 5830 5831 5831 5831 5832 5832 5833 5833 5834 5834 5834 5834 5835 5835 5835 5836 5835 5835 5835 5835 5835 5835 5835 5835 5834 5834 5833 5833 5832 5832 5831 5830 5829 5828 5827 5826 5825 5823 5822 5821 5820 5818 5817 5816 5815 5814 5812 5811 5810 5808 5806 5805 5803 5801 5799 5798 5796 5793 5791 5790 5788 5786 5784 5781 5778 5775 5772 5770 5767 5765 5762 5758 5755
5817 5818 5820 5821 5822 5823 5824 5825 5826 5826 5827 5827 5828 5828 5829 5830 5830 5830 5831 5831 5832 5832 5833 5833 5833 5834 5834 5835 5835 5835 5835 5835 5835 5835 5835 5834 5834 5834 5834 5833 5833 5832 5832 5831 5830 5830 5829 5828 5827 5825 5824 5823 5822 5820 5819 5818 5817 5815 5814 5813 5812 5810 5809 5807 5806 5804 5802 5800 5798 5797 5795 5793 5790 5787 5786 5784 5782 5780 5777 5774 5771 5768 5766 5763 5760 5757 5754 5751
5816 5817 5818 5819 5821 5822 5823 5824 5825 5825 5826 5827 5827 5828 5828 5829 5829 5830 5830 5831 5832 5832 5832 5833 5833 5833 5834 5834 5834 5835 5835 5835 5834 5834 5834 5834 5833 5833 5833 5832 5832 5831 5830 5830 5829 5828 5827 5826 5825 5824 5823 5821 5820 5819 5818 5816 5815 5814 5812 5811 5809 5808 5806 5805 5803 5801 5799 5797 5796 5794 5792 5790 5786 5784 5782 5780 5778 5776 5774 5770 5767 5764 5761 5758 5755 5752 5749 5746
5814 5815 5817 5818 5819 5821 5822 5823 5824 5825 5826 5826 5827 5827 5828 5828 5829 5829 5830 5831 5831 5832 5832 5832 5833 5833 5833 5833 5834 5834 5834 5834 5833 5833 5833 5833 5832 5832 5831 5831 5830 5830 5829 5828 5828 5827 5826 5824 5823 5822 5821 5820 5819 5817 5816 5815 5813 5812 5811 5809 5807 5806 5804 5802 5801 5799 5797 5794 5793 5791 5789 5786 5783 5780 5778 5777 5775 5773 5770 5766 5763 5760 5757 5754 5751 5748 5745 5742
5813 5814 5815 5817 5818 5820 5820 5821 5823 5824 5825 5826 5826 5826 5827 5828 5828 5829 5829 5830 5831 5831 5831 5832 5832 5832 5832 5832 5833 5833 5833 5833 5832 5832 5832 5831 5831 5831 5830 5830 5829 5828 5828 5827 5826 5825 5824 5823 5822 5821 5819 5818 5817 5816 5814 5813 5812 5810 5809 5807 5805 5804 5802 5800 5798 5796 5794 5792 5790 5788 5786 5783 5781 5777 5774 5773 5772 5769 5766 5763 5759 5756 5753 5750 5746 5743 5741 5738
5813 5813 5814 5816 5817 5818 5819 5820 5821 5823 5824 5825 5825 5826 5826 5827 5827 5828 5829 5829 5830 5831 5831 5831 5831 5831 5831 5831 5832 5832 5832 5832 5831 5831 5831 5830 5830 5829 5829 5828 5827 5827 5826 5825 5824 5823 5822 5821 5820 5819 5818 5817 5815 5814 5813 5811 5810 5808 5807 5805 5803 5802 5799 5797 5795 5794 5791 5789 5787 5785 5783 5780 5778 5774 5770 5769 5768 5765 5762 5759 5755 5752 5749 5745 5742 5739 5736 5733
5812 5813 5813 5814 5815 5816 5817 5818 5820 5821 5823 5824 5824 5825 5825 5826 5826 5827 5828 5828 5829 5830 5830 5830 5830 5830 5830 5831 5831 5831 5831 5831 5830 5830 5829 5829 5829 5828 5827 5827 5826 5825 5824 5823 5822 5821 5821 5820 5818 5817 5816 5815 5814 5812 5811 5810 5808 5807 5805 5803 5801 5799 5797 5795 5793 5791 5788 5786 5783 5781 5779 5776 5774 5771 5767 5765 5764 5760 5757 5754 5751 5748 5744 5741 5738 5735 5732 5729
5811 5812 5813 5813 5814 5815 5816 5818 5819 5821 5822 5823 5823 5824 5824 5825 5826 5826 5827 5828 5828 5829 5829 5829 5829 5829 5830 5830 5830 5830 5830 5829 5829 5829 5828 5828 5827 5827 5826 5825 5824 5824 5823 5822 5821 5820 5819 5818 5817 5816 5814 5813 5812 5810 5809 5808 5806 5804 5802 5801 5799 5796 5794 5793 5790 5787 5785 5782 5780 5777 5775 5772 5769 5767 5764 5761 5759 5756 5752 5749 5746 5743 5740 5737 5734 5731 5728 5724
5810 5811 5812 5813 5814 5815 5816 5817 5819 5820 5821 5821 5822 5823 5824 5824 5825 5826 5826 5827 5827 5828 5828 5828 5828 5828 5829 5829 5829 5829 5829 5828 5828 5828 5827 5826 5826 5825 5825 5824 5823 5822 5821 5820 5819 5818 5817 5816 5815 5814 5813 5811 5810 5808 5807 5806 5804 5802 5800 5798 5796 5794 5791 5790 5787 5784 5781 5779 5776 5773 5771 5769 5765 5762 5759 5757 5755 5751 5748 5745 5742 5739 5735 5732 5729 5726 5723 5719
5809 5810 5811 5812 5813 5815 5816 5817 5818 5819 5820 5820 5821 5822 5823 5823 5824 5825 5826 5826 5826 5826 5827 5827 5827 5827 5828 5828 5828 5827 5827 5827 5827 5826 5826 5825 5825 5824 5823 5823 5822 5821 5820 5819 5818 5817 5816 5815 5814 5812 5811 5810 5808 5806 5805 5803 5801 5800 5798 5795 5793 5791 5788 5786 5784 5781 5777 5775 5773 5770 5768 5765 5762 5758 5755 5753 5751 5747 5744 5741 5737 5734 5731 5728 5725 5722 5718 5715
5808 5809 5811 5812 5813 5815 5815 5816 5817 5818 5819 5819 5820 5821 5822 5822 5823 5824 5825 5825 5825 5825 5826 5826 5826 5826 5826 5826 5826 5826 5826 5825 5825 5825 5824 5824 5823 5823 5822 5821 5820 5819 5818 5818 5816 5815 5814 5813 5812 5811 5809 5808 5806 5804 5802 5800 5798 5796 5795 5793 5790 5788 5785 5782 5780 5777 5774 5772 5769 5766 5764 5762 5758 5754 5750 5749 5746 5743 5740 5736 5733 5729 5726 5723 5720 5717 5713 5710
5808 5809 5810 5812 5813 5814 5815 5816 5817 5817 5818 5819 5819 5820 5821 5821 5822 5823 5824 5824 5824 5824 5825 5825 5825 5825 5825 5825 5825 5825 5824 5824 5824 5823 5823 5823 5822 5822 5821 5820 5819 5818 5817 5816 5815 5814 5813 5811 5810 5809 5807 5806 5804 5802 5800 5798 5796 5793 5791 5789 5786 5784 5782 5778 5776 5773 5770 5768 5765 5762 5759 5757 5754 5750 5747 5744 5741 5738 5735 5731 5728 5725 5722 5718 5715 5712 5708 5705
5809 5810 5811 5812 5813 5814 5815 5816 5817 5817 5818 5818 5819 5820 5820 5821 5821 5822 5823 5823 5823 5823 5823 5824 5824 5824 5824 5824 5824 5823 5823 5823 5822 5822 5822 5821 5821 5820 5819 5819 5818 5817 5815 5814 5813 5812 5811 5809 5808 5806 5805 5803 5802 5799 5797 5795 5793 5790 5788 5785 5782 5780 5778 5774 5772 5769 5766 5763 5761 5758 5755 5753 5750 5746 5743 5739 5736 5733 5730 5726 5723 5720 5717 5713 5710 5706 5703 5701
5810 5811 5812 5813 5814 5815 5815 5816 5817 5817 5817 5818 5818 5819 5819 5820 5820 5821 5822 5822 5822 5822 5822 5823 5823 5823 5823 5823 5822 5822 5822 5821 5821 5821 5820 5820 5819 5819 5818 5817 5816 5815 5814 5813 5811 5810 5809 5807 5806 5804 5802 5800 5799 5797 5794 5792 5790 5787 5784 5782 5779 5776 5774 5771 5768 5765 5762 5759 5757 5754 5751 5748 5745 5742 5738 5734 5731 5728 5725 5722 5719 5715 5712 5708 5705 5701 5699 5696
5811 5812 5813 5814 5814 5814 5815 5815 5816 5817 5817 5817 5818 5818 5819 5819 5820 5820 5821 5821 5821 5821 5821 5821 5821 5821 5821 5821 5821 5821 5820 5820 5819 5819 5819 5818 5818 5817 5816 5815 5814 5813 5812 5811 5809 5808 5807 5805 5803 5801 5799 5798 5796 5793 5791 5789 5786 5784 5781 5778 5775 5772 5770 5767 5764 5761 5758 5755 5752 5749 5746 5743 5740 5737 5734 5730 5726 5723 5720 5717 5714 5710 5706 5703 5699 5697 5694 5691
5813 5813 5814 5814 5814 5815 5815 5815 5816 5816 5817 5817 5817 5818 5818 5818 5819 5819 5820 5821 5821 5820 5820 5820 5820 5820 5820 5820 5819 5819 5819 5818 5818 5817 5817 5816 5816 5815 5814 5813 5812 5811 5810 5809 5807 5806 5804 5803 5801 5799 5797 5795 5793 5790 5788 5785 5783 5780 5777 5774 5771 5768 5765 5762 5760 5757 5754 5751 5748 5744 5741 5738 5735 5732 5729 5726 5722 5719 5716 5712 5708 5705 5701 5698 5695 5692 5689 5687
5813 5814 5814 5814 5815 5815 5815 5815 5816 5816 5816 5817 5817 5817 5817 5817 5818 5818 5819 5819 5820 5819 5819 5819 5819 5819 5818 5818 5818 5817 5817 5816 5816 5816 5815 5815 5814 5813 5812 5811 5810 5809 5808 5806 5805 5803 5802 5800 5798 5796 5794 5791 5789 5787 5784 5781 5779 5776 5773 5770 5766 5764 5761 5757 5755 5753 5749 5746 5743 5740 5736 5733 5729 5727 5725 5720 5717 5714 5710 5706 5703 5700 5696 5693 5690 5687 5685 5682
5814 5814 5814 5814 5815 5815 5815 5815 5815 5815 5816 5815 5815 5815 5816 5816 5816 5817 5818 5818 5818 5818 5818 5818 5817 5817 5817 5816 5816 5816 5816 5815 5815 5815 5814 5813 5812 5811 5810 5809 5808 5807 5806 5804 5802 5801 5799 5797 5794 5792 5790 5788 5786 5783 5780 5777 5774 5772 5770 5766 5763 5760 5757 5753 5750 5748 5744 5741 5738 5735 5732 5728 5724 5721 5719 5715 5711 5709 5705 5701 5698 5695 5691 5688 5686 5683 5680 5678
5813 5814 5814 5814 5814 5814 5814 5815 5814 5814 5814 5814 5813 5813 5814 5814 5815 5815 5816 5817 5817 5817 5817 5816 5816 5816 5815 5815 5815 5814 5814 5814 5813 5813 5812 5811 5810 5809 5808 5807 5806 5804 5803 5801 5799 5798 5796 5794 5791 5789 5787 5784 5782 5779 5776 5773 5770 5768 5766 5763 5759 5756 5753 5749 5746 5743 5740 5736 5734 5730 5726 5724 5719 5715 5713 5710 5706 5703 5699 5696 5693 5689 5686 5684 5681 5678 5675 5673
5813 5813 5813 5813 5813 5813 5813 5813 5813 5813 5813 5812 5812 5812 5812 5813 5813 5814 5814 5815 5815 5815 5815 5815 5815 5814 5814 5814 5813 5813 5813 5812 5812 5812 5810 5809 5808 5807 5806 5805 5803 5802 5800 5798 5796 5795 5793 5790 5788 5785 5783 5781 5778 5775 5773 5770 5766 5764 5761 5758 5755 5752 5748 5745 5741 5738 5735 5731 5729 5726 5721 5719 5717 5712 5709 5704 5701 5698 5694 5691 5688 5684 5681 5679 5676 5673 5671 5669
5812 5812 5812 5812 5812 5812 5812 5812 5812 5812 5812 5811 5811 5811 5811 5811 5812 5812 5812 5813 5814 5814 5814 5813 5813 5813 5812 5812 5812 5812 5811 5811 5810 5810 5808 5807 5806 5805 5803 5802 5801 5799 5798 5795 5793 5792 5790 5787 5785 5782 5780 5777 5774 5771 5769 5766 5763 5760 5757 5754 5751 5747 5743 5740 5736 5733 5730 5727 5724 5722 5718 5715 5713 5709 5705 5700 5695 5692 5689 5685 5682 5679 5676 5674 5671 5669 5667 5665
5812 5812 5812 5811 5811 5811 5811 5810 5810 5810 5810 5810 5810 5810 5810 5810 5810 5810 5811 5812 5812 5812 5812 5812 5812 5811 5811 5811 5810 5810 5809 5808 5808 5808 5806 5805 5804 5802 5801 5800 5798 5796 5795 5792 5789 5788 5786 5783 5781 5779 5776 5773 5771 5768 5765 5762 5759 5756 5753 5749 5746 5743 5739 5735 5732 5728 5725 5722 5719 5718 5715 5712 5710 5704 5698 5695 5690 5686 5684 5680 5677 5674 5672 5669 5666 5664 5664 5661
5811 5811 5810 5810 5810 5809 5809 5809 5809 5809 5809 5809 5809 5809 5809 5809 5809 5810 5810 5810 5811 5811 5810 5810 5810 5810 5810 5809 5809 5808 5807 5806 5806 5805 5804 5803 5801 5800 5798 5797 5795 5793 5791 5788 5786 5785 5782 5780 5778 5775 5772 5769 5767 5764 5761 5757 5754 5751 5748 5745 5741 5738 5734 5730 5727 5723 5720 5717 5714 5713 5710 5707 5707 5702 5692 5688 5684 5680 5678 5674 5671 5670 5667 5663 5661 5659 5658 5656
5809 5809 5808 5808 5808 5807 5807 5807 5807 5807 5807 5807 5807 5808 5808 5808 5808 5809 5809 5809 5809 5809 5809 5809 5808 5808 5808 5808 5807 5806 5805 5804 5803 5802 5801 5800 5799 5797 5795 5794 5792 5790 5787 5785 5783 5781 5779 5776 5774 5771 5768 5765 5762 5759 5756 5753 5750 5746 5743 5740 5736 5733 5730 5726 5723 5719 5715 5712 5709 5708 5706 5702 5701 5698 5690 5683 5679 5676 5673 5669 5666 5666 5663 5659 5656 5654 5652 5650
5808 5807 5807 5806 5806 5805 5805 5805 5805 5806 5806 5806 5806 5806 5806 5807 5807 5807 5807 5807 5807 5807 5807 5807 5807 5807 5806 5806 5805 5804 5803 5802 5801 5800 5799 5797 5796 5794 5792 5790 5788 5786 5784 5782 5780 5778 5776 5773 5770 5767 5764 5761 5758 5755 5752 5749 5745 5742 5738 5735 5731 5727 5724 5720 5717 5714 5710 5706 5703 5702 5702 5699 5697 5694 5688 5680 5676 5674 5670 5666 5663 5662 5659 5655 5653 5650 5646 5643
5806 5805 5805 5804 5804 5804 5804 5804 5804 5804 5804 5804 5804 5804 5804 5805 5805 5805 5806 5805 5805 5806 5806 5806 5805 5805 5805 5804 5803 5802 5801 5800 5799 5797 5796 5795 5793 5791 5789 5786 5784 5782 5780 5777 5776 5774 5772 5769 5766 5763 5760 5757 5754 5751 5748 5745 5742 5738 5734 5730 5726 5722 5718 5714 5711 5708 5705 5700 5698 5698 5697 5695 5693 5689 5684 5678 5673 5670 5666 5663 5661 5658 5655 5652 5649 5645 5642 5639
5804 5803 5803 5802 5802 5802 5802 5803 5803 5803 5803 5803 5803 5803 5803 5803 5804 5804 5804 5804 5804 5804 5804 5804 5804 5803 5802 5802 5801 5800 5799 5798 5796 5795 5793 5792 5790 5788 5786 5783 5780 5778 5776 5773 5771 5769 5766 5764 5762 5759 5756 5753 5749 5746 5742 5740 5737 5734 5730 5725 5721 5717 5712 5709 5706 5704 5701 5695 5692 5693 5693 5691 5687 5682 5678 5673 5668 5665 5662 5659 5656 5652 5650 5646 5643 5640 5637 5634
5802 5801 5801 5801 5801 5801 5801 5801 5802 5802 5802 5802 5802 5802 5802 5802 5802 5802 5803 5803 5802 5802 5802 5802 5802 5801 5800 5799 5799 5797 5796 5795 5794 5792 5790 5789 5787 5785 5783 5780 5778 5775 5773 5770 5767 5765 5762 5760 5757 5754 5751 5748 5745 5741 5737 5734 5731 5729 5725 5720 5717 5713 5707 5704 5701 5699 5697 5691 5687 5688 5689 5687 5682 5676 5672 5668 5663 5661 5658 5654 5651 5648 5644 5640 5637 5635 5631 5628
5799 5799 5799 5799 5799 5800 5800 5800 5800 5801 5801 5801 5801 5801 5802 5802 5802 5801 5801 5801 5801 5801 5801 5800 5800 5799 5799 5797 5796 5795 5793 5792 5791 5790 5788 5786 5783 5781 5779 5777 5775 5772 5769 5766 5763 5761 5758 5756 5753 5750 5747 5743 5740 5737 5733 5729 5726 5723 5720 5716 5712 5709 5704 5700 5697 5694 5692 5687 5683 5684 5685 5685 5680 5672 5668 5665 5660 5657 5653 5650 5648 5644 5640 5635 5631 5628 5625 5621
5798 5798 5798 5798 5798 5799 5799 5799 5800 5800 5800 5801 5801 5801 5801 5801 5801 5801 5800 5800 5800 5799 5799 5798 5798 5797 5796 5795 5794 5792 5790 5789 5788 5786 5785 5783 5781 5778 5776 5773 5771 5768 5765 5763 5760 5757 5754 5752 5749 5746 5742 5739 5735 5732 5729 5725 5721 5718 5715 5711 5707 5704 5700 5696 5693 5690 5687 5682 5679 5677 5678 5681 5678 5668 5663 5661 5657 5653 5649 5647 5646 5642 5636 5632 5627 5623 5619 5615
5796 5796 5796 5797 5798 5798 5798 5799 5799 5800 5800 5800 5801 5801 5801 5800 5800 5800 5799 5799 5799 5798 5797 5796 5796 5795 5794 5793 5792 5790 5788 5786 5785 5783 5782 5780 5778 5775 5773 5770 5767 5765 5761 5759 5756 5753 5750 5748 5746 5742 5738 5735 5731 5728 5725 5721 5716 5712 5709 5706 5702 5698 5695 5692 5689 5686 5681 5676 5674 5671 5669 5673 5673 5666 5659 5655 5652 5648 5646 5644 5642 5639 5634 5630 5625 5621 5616 5611
5796 5796 5796 5796 5797 5797 5798 5798 5799 5799 5800 5800 5800 5800 5800 5800 5799 5799 5798 5798 5797 5796 5795 5794 5793 5793 5791 5790 5789 5788 5786 5784 5782 5780 5778 5776 5774 5771 5769 5766 5763 5761 5758 5754 5751 5748 5745 5743 5742 5739 5734 5730 5727 5723 5720 5717 5713 5708 5705 5702 5697 5694 5691 5686 5683 5682 5677 5671 5668 5665 5661 5663 5665 5661 5656 5651 5646 5643 5640 5639 5636 5632 5628 5624 5620 5615 5611 5606
5795 5795 5796 5796 5796 5797 5797 5797 5798 5799 5799 5799 5799 5799 5799 5799 5798 5798 5797 5796 5795 5794 5793 5792 5791 5790 5789 5787 5786 5785 5783 5781 5779 5777 5774 5772 5770 5768 5765 5762 5759 5756 5754 5750 5747 5744 5740 5737 5736 5734 5729 5725 5722 5718 5714 5711 5709 5705 5701 5698 5694 5691 5688 5683 5680 5677 5672 5666 5662 5659 5655 5654 5655 5653 5648 5643 5638 5635 5633 5630 5627 5623 5619 5615 5610 5606 5601 5596
5795 5795 5795 5795 5796 5796 5796 5797 5797 5798 5798 5799 5798 5798 5798 5798 5797 5796 5796 5795 5794 5793 5792 5790 5789 5788 5787 5785 5783 5782 5780 5778 5776 5774 5771 5769 5766 5764 5761 5759 5756 5753 5750 5746 5743 5739 5736 5733 5730 5728 5725 5720 5717 5714 5709 5705 5703 5700 5697 5694 5691 5688 5685 5681 5677 5675 5671 5665 5660 5655 5649 5649 5650 5646 5641 5636 5630 5627 5625 5623 5619 5614 5611 5606 5601 5596 5591 5587
5796 5795 5795 5795 5795 5796 5796 5797 5797 5798 5798 5798 5798 5798 5797 5797 5796 5795 5794 5793 5792 5791 5789 5788 5787 5785 5784 5782 5780 5779 5777 5775 5773 5770 5768 5765 5763 5760 5758 5755 5752 5748 5745 5742 5738 5735 5732 5728 5726 5723 5720 5716 5713 5709 5706 5702 5699 5696 5693 5690 5687 5684 5681 5676 5671 5668 5666 5662 5659 5653 5645 5645 5647 5642 5638 5632 5626 5622 5621 5618 5613 5608 5603 5599 5595 5589 5584 5579
5796 5796 5796 5795 5795 5796 5797 5797 5797 5797 5798 5798 5797 5797 5796 5795 5794 5793 5792 5791 5790 5789 5787 5786 5784 5782 5781 5779 5777 5775 5773 5772 5770 5767 5764 5762 5759 5756 5754 5751 5748 5744 5741 5738 5734 5731 5727 5724 5722 5719 5716 5713 5709 5705 5702 5699 5696 5693 5690 5686 5683 5680 5677 5672 5666 5662 5657 5654 5653 5648 5640 5639 5639 5635 5632 5626 5620 5617 5615 5611 5606 5601 5597 5592 5588 5583 5578 5573
5797 5797 5797 5796 5796 5797 5797 5797 5797 5797 5797 5797 5796 5796 5795 5794 5793 5792 5791 5789 5788 5787 5785 5783 5782 5780 5778 5776 5774 5772 5770 5769 5766 5764 5761 5759 5756 5753 5750 5747 5744 5740 5737 5734 5731 5727 5723 5720 5718 5715 5712 5710 5707 5703 5700 5697 5694 5690 5687 5683 5680 5677 5674 5670 5664 5659 5653 5649 5647 5642 5637 5634 5629 5626 5624 5618 5612 5611 5608 5603 5599 5595 5591 5586 5580 5575 5571 5567
5797 5798 5798 5798 5797 5797 5797 5797 5797 5797 5796 5796 5795 5795 5794 5793 5792 5790 5789 5787 5786 5785 5783 5781 5780 5778 5776 5774 5772 5769 5767 5765 5763 5761 5758 5755 5752 5749 5746 5743 5740 5736 5733 5730 5727 5724 5720 5716 5713 5710 5707 5705 5701 5698 5695 5693 5690 5686 5683 5680 5676 5673 5669 5665 5661 5655 5649 5645 5643 5638 5636 5633 5626 5622 5619 5613 5609 5607 5603 5598 5593 5589 5585 5580 5574 5569 5564 5559
5798 5798 5798 5798 5798 5798 5797 5797 5797 5796 5796 5795 5794 5793 5792 5791 5790 5789 5787 5785 5784 5783 5781 5779 5777 5775 5773 5771 5769 5767 5764 5762 5760 5757 5754 5752 5749 5746 5743 5739 5736 5733 5730 5727 5724 5721 5718 5714 5710 5706 5703 5700 5696 5692 5689 5687 5684 5681 5678 5675 5672 5668 5665 5660 5656 5650 5643 5639 5636 5633 5630 5630 5625 5618 5612 5608 5605 5602 5597 5593 5589 5583 5578 5573 5566 5561 5556 5550
5799 5799 5799 5798 5798 5798 5797 5797 5796 5795 5795 5794 5793 5792 5791 5790 5788 5787 5785 5784 5782 5780 5779 5777 5775 5773 5771 5769 5767 5764 5762 5759 5757 5754 5752 5749 5746 5743 5740 5737 5733 5730 5727 5724 5721 5718 5715 5712 5708 5704 5700 5696 5692 5688 5684 5681 5678 5675 5672 5669 5666 5662 5659 5655 5651 5646 5639 5634 5631 5627 5622 5620 5619 5611 5603 5600 5597 5593 5589 5586 5582 5576 5571 5564 5558 5552 5547 5540
5800 5799 5799 5798 5798 5797 5797 5796 5795 5794 5793 5792 5792 5790 5789 5788 5787 5785 5783 5782 5780 5779 5777 5775 5773 5771 5769 5767 5765 5762 5760 5757 5754 5752 5749 5746 5743 5740 5737 5734 5731 5727 5724 5721 5717 5714 5711 5709 5705 5701 5698 5694 5689 5685 5680 5676 5672 5669 5666 5663 5660 5656 5653 5650 5645 5640 5634 5629 5627 5623 5616 5611 5609 5604 5597 5593 5590 5586 5582 5578 5573 5568 5562 5555 5549 5545 5539 5532
5800 5799 5798 5798 5797 5797 5796 5795 5794 5793 5792 5791 5790 5789 5788 5786 5785 5784 5782 5780 5778 5777 5775 5773 5771 5769 5767 5764 5762 5760 5758 5755 5752 5749 5746 5743 5740 5737 5734 5731 5727 5724 5721 5717 5714 5710 5707 5705 5701 5698 5695 5691 5685 5681 5676 5672 5667 5664 5661 5658 5654 5650 5647 5643 5639 5634 5628 5623 5620 5617 5611 5605 5600 5597 5593 5588 5583 5579 5575 5571 5566 5560 5554 5547 5541 5537 5531 5524
5799 5799 5798 5798 5797 5796 5795 5795 5794 5793 5791 5790 5789 5788 5786 5785 5783 5782 5780 5779 5777 5775 5773 5771 5769 5767 5764 5762 5760 5757 5755 5753 5750 5747 5744 5741 5738 5734 5731 5728 5724 5721 5717 5714 5710 5706 5702 5700 5696 5693 5691 5688 5682 5677 5672 5668 5664 5660 5657 5654 5649 5645 5641 5637 5632 5627 5622 5618 5614 5611 5607 5601 5594 5590 5587 5582 5576 5573 5569 5564 5560 5554 5546 5540 5535 5529 5523 5517
5799 5799 5798 5797 5796 5795 5795 5794 5793 5792 5790 5789 5788 5787 5785 5784 5782 5780 5779 5777 5775 5773 5771 5769 5767 5764 5762 5760 5757 5755 5752 5749 5747 5744 5741 5738 5734 5730 5727 5724 5721 5717 5714 5710 5706 5702 5697 5695 5691 5687 5684 5683 5678 5673 5668 5664 5660 5655 5653 5649 5645 5640 5635 5631 5627 5622 5617 5614 5610 5605 5601 5597 5591 5585 5581 5575 5570 5566 5562 5558 5553 5546 5538 5531 5526 5521 5515 5507
5799 5798 5798 5797 5796 5795 5794 5793 5792 5791 5789 5788 5787 5785 5784 5782 5781 5779 5777 5775 5773 5771 5769 5767 5765 5762 5760 5758 5755 5752 5750 5747 5744 5741 5737 5733 5730 5726 5723 5720 5716 5713 5709 5705 5702 5698 5693 5689 5686 5681 5678 5676 5673 5668 5663 5659 5655 5651 5648 5644 5640 5635 5630 5626 5622 5617 5611 5608 5605 5600 5594 5589 5585 5581 5576 5570 5563 5557 5553 5549 5543 5536 5530 5523 5517 5511 5505 5498
5799 5798 5797 5796 5796 5795 5793 5792 5791 5790 5788 5787 5785 5784 5782 5781 5779 5777 5775 5773 5771 5769 5767 5765 5763 5760 5758 5756 5753 5750 5747 5744 5741 5737 5734 5730 5726 5723 5719 5716 5712 5708 5705 5701 5697 5694 5689 5685 5681 5677 5672 5670 5667 5663 5657 5653 5649 5645 5642 5638 5633 5628 5624 5620 5616 5611 5606 5602 5599 5594 5588 5582 5577 5573 5570 5565 5559 5551 5544 5538 5531 5524 5519 5514 5507 5500 5494 5490